Benton Harbor, MI

9:26 PM EDT on July 22, 2017 (GMT -0400)
Southwest Michigan Regional

Weather History for KBEH - October, 2013

Change the Weather History Date:

Sunday, October 13, 2013

  Actual Average Record
Temperature  
Mean Temperature 51 °F -  
Max Temperature 61 °F 62 °F 85 °F (1975)
Min Temperature 41 °F 41 °F 20 °F (1993)
Degree Days  
Heating Degree Days 14    
Growing Degree Days 1 (Base 50)    
Moisture  
Dew Point 43 °F    
Average Humidity 65    
Maximum Humidity 100    
Minimum Humidity 53    
Precipitation  
Precipitation 0.00 in - - ()
Sea Level Pressure  
Sea Level Pressure 30.31 in    
Wind  
Wind Speed 6 mph (NW)    
Max Wind Speed 12 mph    
Max Gust Speed 22 mph    
Visibility 10 miles    
Events      
Averages and records for this station are not official NWS values.
T = Trace of Precipitation, MM = Missing Value Source: NWS Daily Summary

Daily Weather History Graph

Daily Weather History Graph

Search for Another Location

Airport or City:

Trip Planner

Search our weather history database for the weather conditions in past years. The results will help you decide how hot, cold, wet, or windy it might be!

Date:

Astronomy

Oct. 13, 2013 Rise Set
Actual Time 7:56 AM EDT 7:06 PM EDT
Civil Twilight 7:28 AM EDT 7:34 PM EDT
Nautical Twilight 6:55 AM EDT 8:07 PM EDT
Astronomical Twilight 6:23 AM EDT 8:39 PM EDT
Moon 4:02 PM EDT (10/13) 1:59 AM EDT (10/13)
Length of Visible Light 12h 06m
Length of Day
11h 10m
Waxing Gibbous, 69% of the Moon is Illuminated
Oct 13
Waxing Gibbous
Oct 18
Full
Oct 26
Last Quarter
Nov 3
New
Nov 10
First Quarter

Hourly Weather History & Observations

Time (EDT) Temp. Dew Point Humidity Pressure Visibility Wind Dir Wind Speed Gust Speed Precip Events Conditions
12:53 AM 61.0 °F 46.9 °F 60% 30.15 in 10.0 mi NW 5.8 mph - N/A   Clear
1:53 AM 60.1 °F 45.0 °F 57% 30.17 in 10.0 mi NW 8.1 mph - N/A   Clear
2:53 AM 59.0 °F 42.1 °F 53% 30.19 in 10.0 mi NW 6.9 mph - N/A   Clear
3:53 AM 59.0 °F 43.0 °F 55% 30.20 in 10.0 mi Variable 4.6 mph - N/A   Clear
4:53 AM 57.9 °F 42.1 °F 56% 30.22 in 10.0 mi Variable 3.5 mph - N/A   Clear
5:53 AM 57.0 °F 42.1 °F 57% 30.24 in 10.0 mi NW 4.6 mph - N/A   Clear
6:53 AM 55.9 °F 42.1 °F 60% 30.26 in 10.0 mi NW 3.5 mph - N/A   Clear
7:53 AM 55.9 °F 42.1 °F 60% 30.28 in 10.0 mi NW 3.5 mph - N/A   Clear
8:53 AM 57.0 °F 44.1 °F 62% 30.30 in 10.0 mi NW 4.6 mph - N/A   Clear
9:53 AM 59.0 °F 44.1 °F 58% 30.32 in 10.0 mi Variable 5.8 mph - N/A   Clear
10:53 AM 59.0 °F 45.0 °F 60% 30.34 in 10.0 mi NW 9.2 mph - N/A   Clear
11:53 AM 60.1 °F 45.0 °F 57% 30.35 in 10.0 mi WNW 11.5 mph - N/A   Clear
12:53 PM 60.1 °F 45.0 °F 57% 30.36 in 10.0 mi WNW 10.4 mph 17.3 mph N/A   Clear
1:53 PM 59.0 °F 42.1 °F 53% 30.36 in 10.0 mi WNW 10.4 mph 21.9 mph N/A   Clear
2:53 PM 57.9 °F 43.0 °F 58% 30.36 in 10.0 mi NW 8.1 mph - N/A   Clear
3:53 PM 57.9 °F 44.1 °F 60% 30.36 in 10.0 mi NW 9.2 mph - N/A   Scattered Clouds
4:53 PM 57.0 °F 41.0 °F 55% 30.36 in 10.0 mi NW 6.9 mph - N/A   Clear
5:53 PM 55.9 °F 41.0 °F 57% 30.36 in 10.0 mi NW 8.1 mph - N/A   Partly Cloudy
6:53 PM 54.0 °F 41.0 °F 62% 30.37 in 10.0 mi Calm Calm - N/A   Clear
7:53 PM 50.0 °F 42.1 °F 74% 30.38 in 10.0 mi Calm Calm - N/A   Partly Cloudy
8:53 PM 44.1 °F 41.0 °F 89% 30.38 in 10.0 mi Calm Calm - N/A   Clear
9:53 PM 43.0 °F 42.1 °F 97% 30.38 in 10.0 mi Calm Calm - N/A   Partly Cloudy
10:53 PM 41.0 °F 41.0 °F 100% 30.39 in 10.0 mi Calm Calm - N/A   Clear
11:53 PM 41.0 °F 41.0 °F 100% 30.40 in 10.0 mi Calm Calm - N/A   Mostly Cloudy